Temp_Advection
nan nan nan nan nan nan nan nan nan nan nan nan nan nan nan nan nan nan nan nan nan nan nan nan nan nan nan nan nan nan nan nan nan nan nan nan nan nan nan nan nan nan nan nan
nan -0 -1 -0 0 0 -0 -0 0 0 0 0 0 -0 0 0 0 0 -0 -0 -0 -0 -0 -0 -0 -0 -0 -0 -0 -0 -0 -0 -0 -0 -1 -1 -1 -0 -0 0 1 1 0 nan
nan -0 -0 -0 -0 -0 -0 0 -0 0 0 0 0 0 0 0 0 0 0 -0 -0 -0 -0 -0 -0 -0 -0 -0 -1 -1 -0 -0 -0 -0 -0 -0 -0 -0 -0 -0 -0 -0 0 nan
nan 0 -0 -0 0 -0 0 0 0 -0 0 0 -0 0 0 0 0 0 0 0 -0 -0 -0 -0 -0 -0 -0 -0 -1 -0 -0 -0 -0 -0 -0 -0 0 -0 -0 -0 -0 -0 -0 nan
nan -0 -1 -0 -0 -0 -0 1 0 -0 0 0 0 1 0 0 0 0 0 0 0 -0 -0 -0 -0 -0 -0 -0 -0 -0 -0 -0 -0 -0 -0 -0 0 0 -0 0 0 0 0 nan
nan 0 -0 -0 -0 -0 -1 0 -0 -1 -1 0 0 -0 -0 -0 0 0 0 0 0 0 -0 -0 -0 -0 -0 -0 0 0 -0 -0 -0 -0 -0 -0 -0 0 0 0 0 0 0 nan
nan -0 -1 -1 0 -0 -0 -0 -1 -0 -0 -0 -0 -1 -0 0 0 0 0 0 0 -0 -0 0 0 -0 -0 0 0 0 -0 -0 -0 -0 -0 -0 -0 0 0 0 0 0 0 nan
nan 0 -1 -0 0 -0 -0 -0 -0 1 0 -0 -0 0 0 0 0 0 0 0 -0 0 0 0 -0 -0 -0 -0 -0 0 -0 -0 -0 -0 -0 -0 0 0 -0 0 0 0 0 nan
nan -1 -0 -0 -0 -0 -0 0 1 0 0 0 0 0 0 0 0 0 0 0 -0 -0 -0 -0 0 -0 -0 -0 -0 -0 -0 -1 -0 -0 -1 -0 0 0 0 0 0 0 -0 nan
nan -0 -0 -1 1 0 0 0 0 1 0 0 0 0 0 0 0 0 0 -0 -0 -0 -0 -0 -0 0 -0 -0 0 0 -0 -0 -0 -0 -0 -0 -0 0 -0 -0 -0 -0 -0 nan
nan -0 -0 -0 -0 0 1 1 1 0 0 0 0 0 0 0 0 0 0 -0 -0 -0 -0 -0 -0 0 0 0 0 0 -0 -0 -0 -0 -0 0 -0 -0 0 0 -0 -0 -0 nan
nan -1 -0 -0 0 1 1 0 0 0 0 0 0 0 0 0 0 0 0 -0 -0 -0 -0 -0 0 0 0 0 0 0 -0 -0 -0 0 0 0 0 -0 -0 -0 -0 -0 -0 nan
nan 0 1 0 1 1 0 0 0 0 0 0 0 0 0 0 0 0 0 -0 -0 -0 0 0 0 0 -0 0 0 0 -0 -0 0 0 0 0 0 0 -0 -0 -0 -0 -0 nan
nan 1 0 1 1 1 0 1 0 0 0 0 0 0 -0 -0 0 0 0 -0 -0 -0 0 0 0 0 -0 -0 0 0 -0 -0 0 0 0 0 0 0 -0 -0 -0 0 0 nan
nan 0 0 0 0 1 1 1 0 0 0 0 0 0 -0 0 0 0 -0 -0 -0 -0 -0 -0 0 -0 0 -0 0 0 -0 -0 -0 -0 0 0 0 0 -0 -0 0 0 0 nan
nan 0 0 0 1 1 1 0 0 0 0 0 0 0 0 0 0 -0 -0 -0 -1 -1 -0 -0 -0 -0 -0 0 0 0 0 0 0 0 0 0 0 -0 -0 -0 0 0 -0 nan
nan 0 1 -0 -0 -0 0 -0 0 0 0 0 0 0 0 0 0 0 -0 -0 0 -1 -1 0 0 0 -0 0 0 0 0 1 1 0 0 0 0 -0 -0 -0 0 -0 -0 nan
nan -1 0 0 0 -0 -0 0 -0 0 0 0 0 0 0 0 0 0 0 0 0 0 -0 0 0 0 -0 -0 0 0 0 0 0 0 0 0 0 0 -0 -0 -0 -0 -0 nan
nan 0 0 0 0 -0 -0 0 0 0 0 0 0 0 0 0 0 0 0 0 1 1 0 1 0 -0 0 0 0 0 1 0 0 0 0 0 0 0 0 -0 -0 -0 -0 nan
nan 0 0 0 -0 -0 -0 -0 -0 0 0 0 0 -0 0 0 0 0 1 0 0 0 0 0 0 0 0 0 0 1 1 0 0 0 0 0 0 0 0 0 -0 -0 -0 nan
nan 0 -0 -0 -0 -0 -0 0 0 -0 0 0 0 0 0 0 0 0 0 -0 0 0 -0 -0 -0 -0 -0 -0 -0 -0 0 1 1 0 0 1 1 1 0 0 0 0 -0 nan
nan -0 -0 -0 -0 -0 0 0 0 0 -0 0 0 0 0 0 0 0 0 0 -0 0 -0 -0 -0 -0 -0 -0 -0 -0 -0 0 0 1 0 0 0 1 1 1 0 0 0 nan
nan -0 -0 -0 -0 -0 -0 0 0 0 0 -0 0 0 0 0 0 0 0 0 0 0 -0 -0 -0 -0 -0 -0 -0 -0 -0 -0 0 0 0 0 0 1 1 1 1 0 0 nan
nan -0 -0 -0 -0 -0 -0 -0 0 0 0 0 0 0 0 0 0 1 1 0 0 -0 -0 -0 -0 0 0 -0 -1 -1 -0 -0 -0 -0 -0 0 0 0 1 1 1 0 1 nan
nan -0 -0 -0 -0 -0 -0 -0 -0 -0 -0 -0 0 0 1 1 0 0 1 0 -0 -0 0 -0 -0 -0 1 1 0 -0 -1 -1 -1 -1 -0 -0 -0 0 0 1 1 1 1 nan
nan -0 0 0 -0 -0 -0 -1 -1 -1 -0 -0 0 0 0 0 1 1 1 0 0 0 -0 -0 -0 -0 -0 0 0 1 1 0 -1 -1 -0 -0 -0 -0 0 1 1 1 0 nan
nan nan nan nan nan nan nan nan nan nan nan nan nan nan nan nan nan nan nan nan nan nan nan nan nan nan nan nan nan nan nan nan nan nan nan nan nan nan nan nan nan nan nan nan
Wind_Speed
4 4 2 1 4 5 6 5 6 5 8 5 9 9 14 12 9 5 2 4 3 4 5 5 8 10 12 14 14 16 23 27 30 27 27 24 28 23 23 28 30 31 22 19
1 5 6 3 5 7 5 4 5 3 3 5 13 13 13 11 6 1 2 2 4 4 6 9 10 10 13 17 22 26 30 29 24 23 27 31 28 25 28 29 30 28 18 10
3 4 4 6 8 8 4 2 6 6 7 12 6 12 12 8 2 3 1 2 1 5 7 7 11 15 18 21 25 27 22 19 22 26 27 30 33 27 25 26 23 12 15 14
2 3 1 6 5 5 5 2 3 3 8 12 13 10 10 5 3 3 3 2 4 4 6 10 13 16 21 24 24 20 19 25 27 27 31 35 28 23 18 17 14 11 10 11
3 3 5 4 4 6 6 7 6 7 8 10 9 9 10 9 7 5 3 2 0 5 10 13 16 20 22 22 17 23 26 29 28 27 33 28 25 16 12 13 10 11 8 10
3 4 6 5 2 9 5 5 16 16 16 14 15 3 5 14 9 6 4 4 5 9 12 16 19 21 23 24 25 28 27 26 26 28 27 26 21 15 11 11 11 9 11 14
2 3 8 6 5 7 5 7 22 26 26 21 7 10 4 12 8 6 5 4 7 12 17 20 21 23 26 27 28 28 24 26 23 27 28 25 21 17 12 10 11 7 11 17
3 2 7 10 5 7 6 6 19 24 21 19 13 8 11 9 8 6 5 8 13 18 20 21 23 26 26 28 30 28 22 22 25 30 25 25 18 12 13 9 5 10 15 16
9 6 4 17 7 16 8 8 19 19 17 13 10 12 11 9 7 6 9 11 16 20 22 21 23 24 26 29 28 24 19 23 24 23 24 22 13 12 9 7 10 13 14 15
3 4 11 12 21 11 10 8 14 14 13 10 11 12 10 8 7 7 10 15 19 21 21 21 22 23 27 27 26 22 23 24 26 23 19 12 9 7 7 9 11 13 13 12
4 5 4 11 17 15 12 12 14 12 11 13 15 11 9 7 7 9 13 17 20 21 21 23 24 26 27 28 24 22 21 19 17 17 10 9 8 7 9 10 12 12 12 13
6 10 8 6 15 17 17 15 12 15 15 12 11 9 6 5 9 13 16 18 19 21 23 24 26 28 29 24 19 19 21 17 12 13 10 9 12 11 10 10 11 10 13 13
6 6 14 10 10 18 14 12 15 15 13 12 10 5 5 7 12 15 16 18 20 23 25 26 28 28 26 20 17 17 17 11 11 13 13 14 14 10 10 7 8 10 12 12
13 9 6 14 10 16 12 17 14 12 12 8 5 3 7 12 15 15 18 20 23 26 28 27 25 24 22 17 15 16 14 12 12 14 14 13 13 10 11 11 11 13 11 10
12 8 4 10 10 15 16 14 16 11 8 5 4 9 13 15 15 17 19 22 26 28 26 24 22 20 19 16 17 12 13 12 14 14 12 17 18 12 12 10 12 12 10 10
9 4 9 13 17 13 14 10 6 5 3 5 10 13 14 15 16 18 20 24 27 26 25 23 22 19 18 19 18 13 12 13 11 12 15 18 15 12 13 11 12 12 11 12
16 14 18 21 18 12 7 5 4 4 8 12 14 14 16 17 17 18 22 24 22 23 25 25 19 17 19 18 17 14 14 15 16 16 15 14 14 14 12 12 12 12 11 11
17 19 15 10 10 7 5 4 8 11 12 12 14 16 16 16 17 18 21 22 24 26 25 21 17 17 20 20 18 17 17 14 12 12 13 14 16 13 13 14 14 15 14 13
12 13 12 10 5 2 6 9 10 10 11 13 14 14 14 16 16 20 21 24 30 31 27 22 20 17 19 20 18 19 19 19 18 16 14 15 15 14 16 17 17 16 15 13
15 11 6 2 6 8 8 9 10 10 11 13 14 14 14 16 19 22 23 27 30 27 25 22 19 22 21 21 21 21 21 20 19 18 18 19 21 20 19 17 18 18 19 18
7 4 7 9 9 9 10 11 13 14 14 13 13 15 18 20 22 24 28 34 35 26 24 22 24 23 20 22 21 21 26 23 23 24 24 23 23 22 22 21 21 22 22 23
7 8 9 9 11 13 13 15 16 17 15 14 15 19 22 24 24 27 30 32 33 25 23 24 24 24 24 23 22 23 22 24 27 27 27 26 25 26 23 22 23 22 22 21
9 10 11 13 15 17 18 17 17 18 18 18 20 21 23 25 26 31 35 32 27 23 22 23 23 23 23 23 22 22 24 25 25 28 28 27 26 27 26 23 23 23 23 22
9 10 12 14 15 17 20 20 20 19 21 22 22 25 25 26 30 29 28 28 21 22 24 26 25 22 22 23 22 23 25 25 25 26 27 28 28 29 30 27 21 20 21 19
9 11 13 15 18 20 22 23 24 24 25 27 29 27 26 28 29 29 26 22 23 23 28 28 26 26 24 23 23 23 25 26 27 27 27 27 26 26 26 26 22 20 20 18
13 16 19 20 22 24 25 26 28 29 29 31 30 27 27 24 25 25 23 24 22 24 28 27 26 24 24 24 24 25 26 25 24 27 27 28 27 25 25 21 18 17 18 17
19 23 27 29 28 28 30 32 33 35 31 28 32 31 28 26 25 25 25 20 22 26 25 24 22 21 21 22 23 23 23 23 21 21 24 26 26 23 22 16 14 15 16 16
Wind_Direction
59 18 5 174 169 184 196 189 170 240 210 198 176 168 156 143 135 130 25 355 1 43 43 360 330 324 325 328 333 330 327 323 323 321 316 320 325 325 312 303 297 293 283 285
114 5 3 283 225 243 226 204 242 147 227 163 162 159 152 155 161 231 346 28 74 41 336 330 333 344 342 333 328 327 326 326 324 323 329 333 333 323 311 303 290 285 273 253
256 349 335 331 223 194 186 204 149 180 214 157 168 173 174 178 243 298 279 134 343 328 331 347 342 337 332 330 330 332 328 319 326 331 333 332 328 320 316 308 318 305 293 288
197 16 355 240 311 224 174 208 183 111 154 166 181 194 198 204 249 211 193 282 312 327 331 330 331 330 331 332 336 334 332 329 330 329 330 332 328 324 325 314 321 321 308 291
141 202 299 295 188 150 170 247 197 157 149 160 166 175 223 218 202 198 226 242 247 319 329 329 330 331 332 334 336 329 326 325 324 322 329 331 329 326 317 308 300 302 289 280
136 146 215 240 224 143 105 297 188 172 175 170 158 175 250 199 191 205 206 216 297 322 329 328 329 329 327 327 323 321 319 319 319 322 327 330 332 317 291 291 289 290 289 299
142 226 287 236 174 136 103 237 179 192 192 181 184 216 188 178 196 196 216 287 320 325 327 329 327 325 324 323 321 321 314 310 313 321 325 322 314 304 284 272 282 297 301 310
106 85 276 179 140 168 205 181 188 195 194 195 212 203 172 186 185 205 269 306 316 322 325 325 323 322 322 322 321 319 316 307 311 318 321 317 304 286 292 295 289 294 309 313
185 213 251 189 235 210 224 201 190 192 194 202 201 185 188 187 205 257 293 311 322 322 320 321 322 322 323 325 325 325 318 309 311 315 322 315 294 279 263 282 303 310 313 317
98 244 240 245 241 247 219 218 188 188 191 199 188 189 190 200 242 280 305 317 320 319 317 320 323 322 326 324 322 319 314 306 310 314 319 316 289 287 316 315 308 313 317 323
259 272 274 252 235 231 209 191 183 191 199 187 184 190 203 231 272 300 312 317 318 317 315 319 320 320 325 323 320 323 324 318 315 318 312 286 306 307 296 298 308 315 320 325
228 231 217 237 230 214 197 190 193 178 174 187 189 200 213 260 300 310 315 316 315 315 317 319 318 317 319 321 323 327 330 328 310 319 296 292 302 300 289 303 308 308 317 319
261 252 224 249 223 198 193 193 176 180 185 182 189 213 264 307 317 313 313 313 314 318 320 318 314 313 319 322 327 322 325 324 309 310 298 298 293 301 305 300 293 308 313 318
260 238 170 179 187 184 187 170 177 176 174 193 210 269 311 319 315 309 312 315 318 319 317 314 313 316 323 324 319 316 314 310 295 300 296 301 313 297 293 294 305 315 321 324
193 208 244 192 167 166 172 175 166 168 193 202 291 314 316 313 310 315 318 319 318 317 318 320 317 327 322 317 318 309 306 298 294 292 280 304 310 293 290 289 295 308 315 318
192 189 155 153 150 142 144 139 171 197 226 295 310 311 312 314 317 318 318 318 319 322 324 320 315 324 312 312 305 298 293 292 291 286 289 295 300 292 285 284 291 296 299 311
156 132 134 126 129 126 129 192 231 285 306 308 309 311 313 313 312 314 316 320 325 325 328 325 313 312 314 314 302 292 291 287 292 295 298 303 299 295 286 287 287 285 297 301
151 131 137 126 126 167 202 273 304 306 307 308 308 309 309 308 312 315 319 327 322 320 333 318 308 305 308 319 296 290 296 297 299 313 304 299 294 287 290 285 281 291 296 293
117 108 115 125 127 345 309 303 303 306 307 304 303 305 305 307 306 312 315 318 327 321 324 315 310 304 301 317 315 293 285 286 285 291 300 295 296 293 291 289 287 286 287 290
113 112 105 51 333 325 319 312 308 307 308 303 300 302 303 305 305 308 307 310 322 319 312 308 310 309 308 300 300 300 298 294 291 294 295 292 294 284 288 287 285 284 286 287
95 43 346 335 334 331 323 316 311 308 304 295 294 301 302 309 312 305 305 313 323 320 307 297 303 310 307 308 296 286 284 290 291 290 291 293 295 293 275 277 282 284 288 289
5 351 344 339 333 327 321 314 309 306 295 288 292 298 304 309 310 305 307 315 322 321 315 312 316 318 317 314 306 297 290 286 286 287 285 286 286 291 288 276 275 282 290 292
356 349 342 336 330 325 321 317 310 302 293 290 292 301 302 307 309 311 314 322 318 316 313 313 314 312 310 308 305 306 304 295 294 292 287 283 284 284 287 286 276 277 287 292
346 342 338 334 328 324 322 320 311 298 290 291 293 302 305 303 306 309 311 317 312 309 309 314 313 309 307 305 306 307 305 302 300 298 298 293 290 288 283 282 278 277 281 291
337 337 333 328 323 318 315 312 307 301 297 296 297 299 300 301 302 309 310 303 301 306 314 317 317 317 314 313 309 305 305 306 304 302 301 299 299 300 297 277 274 271 277 284
330 328 323 320 317 314 310 309 308 305 301 299 296 294 296 297 298 299 297 298 297 308 317 317 319 319 319 319 318 315 310 305 298 300 302 308 298 300 305 280 268 264 273 285
317 317 314 313 313 313 312 311 309 304 304 294 297 301 301 295 291 290 296 291 298 311 318 318 317 321 325 328 328 325 319 311 304 300 302 301 308 302 305 276 261 264 267 282
Height
1536 1537 1531 1530 1534 1537 1540 1541 1550 1542 1542 1537 1539 1541 1542 1543 1544 1545 1546 1545 1544 1543 1543 1542 1539 1538 1536 1534 1531 1528 1525 1522 1518 1515 1511 1507 1504 1501 1498 1494 1489 1484 1481 1480
1538 1541 1541 1535 1533 1534 1535 1534 1538 1538 1540 1536 1539 1540 1542 1543 1544 1544 1543 1543 1542 1541 1541 1539 1536 1534 1532 1530 1528 1525 1521 1517 1514 1511 1507 1502 1499 1494 1490 1486 1482 1478 1474 1475
1552 1552 1547 1552 1532 1529 1526 1526 1529 1541 1532 1534 1538 1539 1540 1540 1540 1540 1541 1541 1540 1539 1538 1537 1533 1531 1529 1526 1523 1520 1516 1513 1509 1505 1501 1497 1493 1488 1484 1481 1478 1474 1472 1473
1562 1560 1563 1526 1521 1520 1523 1525 1526 1527 1528 1530 1533 1536 1537 1538 1539 1539 1540 1539 1538 1537 1535 1533 1530 1528 1525 1522 1519 1516 1512 1509 1505 1500 1496 1492 1487 1482 1479 1477 1474 1473 1471 1470
1567 1562 1541 1521 1520 1522 1522 1525 1524 1526 1529 1531 1534 1536 1536 1536 1536 1537 1537 1536 1535 1534 1532 1530 1527 1525 1522 1519 1515 1511 1508 1504 1500 1496 1492 1487 1481 1478 1476 1474 1472 1471 1470 1469
1566 1570 1562 1520 1514 1514 1516 1532 1517 1520 1525 1528 1532 1541 1531 1531 1534 1534 1532 1532 1532 1531 1529 1526 1523 1520 1517 1513 1510 1506 1503 1500 1496 1492 1487 1482 1478 1475 1473 1471 1470 1468 1467 1465
1577 1569 1539 1515 1513 1515 1534 1528 1512 1516 1519 1524 1527 1527 1528 1530 1531 1531 1530 1530 1528 1527 1525 1522 1519 1515 1512 1508 1504 1501 1498 1494 1491 1487 1483 1478 1474 1471 1470 1468 1467 1466 1464 1462
1559 1565 1541 1508 1514 1520 1510 1506 1509 1513 1516 1520 1522 1524 1525 1527 1528 1528 1528 1527 1525 1523 1521 1518 1515 1511 1508 1505 1500 1495 1492 1488 1485 1482 1478 1473 1470 1469 1467 1466 1464 1463 1461 1459
1526 1521 1505 1505 1503 1503 1503 1504 1507 1511 1515 1517 1519 1521 1522 1524 1525 1526 1525 1524 1522 1520 1517 1515 1511 1508 1504 1500 1495 1490 1487 1484 1479 1476 1472 1468 1466 1465 1464 1463 1462 1460 1458 1455
1515 1502 1503 1504 1503 1503 1503 1504 1506 1509 1512 1515 1518 1520 1521 1522 1523 1523 1522 1521 1518 1516 1513 1510 1508 1504 1500 1495 1490 1486 1482 1478 1474 1471 1468 1466 1465 1463 1462 1461 1459 1457 1455 1453
1508 1501 1501 1499 1499 1499 1501 1502 1505 1507 1509 1511 1513 1517 1519 1520 1521 1520 1519 1517 1515 1512 1508 1506 1502 1498 1494 1490 1485 1481 1477 1473 1470 1468 1466 1465 1463 1462 1460 1458 1456 1454 1452 1450
1502 1492 1493 1494 1494 1496 1498 1500 1503 1505 1508 1511 1513 1516 1517 1517 1517 1517 1515 1512 1510 1508 1504 1501 1497 1492 1488 1484 1480 1477 1473 1470 1467 1466 1464 1462 1461 1459 1457 1455 1453 1452 1450 1447
1489 1490 1491 1491 1491 1494 1497 1500 1503 1504 1507 1511 1513 1514 1515 1515 1514 1513 1511 1508 1505 1502 1499 1495 1491 1487 1482 1478 1476 1474 1470 1467 1465 1464 1462 1460 1457 1455 1453 1452 1451 1449 1447 1445
1487 1488 1489 1490 1491 1493 1496 1499 1502 1505 1509 1511 1512 1513 1512 1512 1511 1509 1507 1504 1501 1498 1494 1489 1485 1481 1477 1474 1472 1469 1467 1465 1463 1461 1459 1457 1454 1452 1450 1448 1447 1446 1444 1441
1486 1487 1487 1490 1492 1495 1497 1499 1502 1506 1509 1510 1511 1510 1509 1507 1506 1505 1503 1500 1496 1493 1488 1483 1479 1476 1474 1471 1468 1465 1463 1461 1459 1457 1455 1453 1451 1448 1446 1445 1443 1442 1440 1439
1487 1488 1488 1490 1493 1497 1502 1504 1506 1507 1508 1509 1508 1506 1505 1503 1502 1500 1498 1495 1491 1487 1483 1479 1475 1473 1470 1467 1464 1461 1460 1457 1455 1453 1451 1449 1447 1445 1443 1441 1440 1438 1436 1435
1486 1489 1491 1492 1494 1499 1504 1507 1507 1507 1506 1505 1504 1502 1500 1499 1498 1496 1494 1491 1486 1483 1479 1474 1470 1468 1465 1462 1459 1457 1455 1454 1451 1448 1446 1444 1443 1441 1439 1437 1436 1434 1433 1432
1488 1491 1493 1497 1500 1503 1505 1505 1505 1504 1503 1502 1500 1499 1497 1495 1493 1491 1487 1485 1482 1478 1475 1469 1466 1463 1460 1457 1454 1452 1451 1449 1447 1444 1442 1440 1438 1437 1435 1433 1432 1430 1428 1427
1492 1496 1499 1501 1504 1505 1504 1503 1502 1501 1500 1498 1497 1495 1494 1492 1489 1486 1484 1481 1477 1471 1467 1464 1461 1458 1455 1452 1450 1447 1445 1443 1441 1440 1438 1436 1434 1432 1430 1428 1427 1425 1424 1422
1498 1501 1503 1504 1504 1503 1502 1501 1499 1498 1497 1494 1493 1491 1489 1487 1485 1482 1479 1475 1473 1468 1463 1459 1456 1452 1450 1447 1444 1441 1439 1437 1435 1434 1432 1430 1428 1426 1425 1423 1421 1420 1418 1417
1502 1502 1502 1502 1501 1500 1499 1497 1496 1494 1492 1490 1488 1487 1484 1482 1480 1477 1473 1468 1465 1461 1456 1453 1450 1446 1443 1440 1437 1435 1432 1430 1429 1427 1425 1424 1422 1419 1418 1416 1415 1414 1412 1411
1501 1501 1501 1500 1498 1497 1496 1494 1492 1489 1487 1486 1484 1482 1479 1477 1474 1471 1468 1463 1456 1453 1449 1446 1443 1440 1436 1433 1430 1427 1425 1423 1421 1419 1417 1416 1414 1412 1410 1409 1408 1407 1405 1404
1500 1499 1498 1497 1495 1494 1492 1491 1488 1485 1483 1481 1479 1477 1474 1470 1467 1463 1457 1455 1450 1447 1444 1440 1437 1434 1431 1427 1424 1421 1418 1416 1413 1411 1409 1407 1406 1404 1402 1400 1400 1399 1398 1397
1499 1498 1496 1495 1494 1492 1488 1486 1483 1481 1478 1475 1473 1470 1467 1463 1459 1457 1453 1448 1444 1441 1438 1434 1431 1427 1424 1421 1418 1415 1412 1409 1406 1403 1401 1399 1397 1395 1393 1392 1391 1391 1391 1390
1496 1495 1494 1492 1490 1487 1484 1481 1477 1474 1472 1468 1465 1463 1459 1456 1452 1448 1445 1442 1439 1436 1433 1429 1425 1421 1417 1414 1411 1407 1404 1401 1399 1396 1393 1391 1389 1386 1384 1383 1383 1383 1384 1383
1494 1492 1490 1488 1486 1482 1478 1474 1470 1467 1464 1460 1457 1455 1451 1448 1445 1442 1439 1436 1434 1430 1427 1423 1419 1415 1411 1407 1404 1400 1397 1393 1391 1389 1386 1383 1381 1378 1376 1375 1376 1377 1377 1377
1490 1487 1484 1481 1479 1475 1471 1467 1463 1457 1455 1452 1448 1446 1442 1440 1437 1434 1432 1430 1427 1424 1421 1417 1413 1410 1406 1402 1398 1394 1390 1387 1383 1381 1379 1376 1374 1371 1369 1370 1370 1371 1371 1371